�N����,����,�~����,�C��,���x,�C��,����,���ϕ���,�ő�u�ԕ���,�ő厞����,���˗�,�I�_���x,�n�����x,�ő啗���N��,DTYPE
"20/06/22","00:10",0.0,21.4,80.6,1002.9,25.1,0.8,2.4,312.2,0.00,18.0,22.3,"00:00:32",1
"20/06/22","00:20",0.0,22.1,80.0,1002.6,79.4,1.0,2.5,95.2,0.00,18.5,22.1,"00:16:08",1
"20/06/22","00:30",0.0,22.3,78.9,1002.6,82.7,0.8,1.9,97.4,0.00,18.5,22.1,"00:21:36",1
"20/06/22","00:40",0.0,22.4,77.9,1002.6,118.1,0.8,1.8,101.7,0.00,18.4,22.1,"00:33:12",1
"20/06/22","00:50",0.0,22.6,76.6,1003.1,95.1,1.5,3.9,118.7,0.00,18.3,22.0,"00:48:48",1
"20/06/22","01:00",0.0,22.7,75.3,1002.9,104.0,1.0,2.2,112.4,0.00,18.1,22.0,"00:51:44",1
"20/06/22","01:10",0.0,22.7,74.8,1002.9,76.2,0.8,3.1,0.6,0.00,18.0,21.9,"01:00:48",1
"20/06/22","01:20",0.0,22.7,74.6,1002.9,95.7,1.0,3.3,115.9,0.00,18.0,22.0,"01:17:44",1
"20/06/22","01:30",0.0,22.7,74.6,1003.1,72.9,1.1,2.4,115.4,0.00,18.0,21.8,"01:26:00",1
"20/06/22","01:40",0.0,22.6,74.6,1002.6,82.9,1.1,3.4,155.8,0.00,17.9,21.7,"01:33:20",1
"20/06/22","01:50",0.0,22.6,74.4,1002.9,17.0,1.0,2.5,350.0,0.00,17.9,21.7,"01:48:16",1
"20/06/22","02:00",0.0,22.5,74.3,1002.4,32.4,0.8,2.6,355.8,0.00,17.7,21.8,"01:56:08",1
"20/06/22","02:10",0.0,22.6,74.1,1002.2,21.9,1.0,2.9,28.4,0.00,17.8,21.7,"02:06:24",1
"20/06/22","02:20",0.0,22.6,73.8,1001.9,41.1,1.2,4.4,115.2,0.00,17.7,21.8,"02:17:04",1
"20/06/22","02:30",0.0,22.7,73.5,1002.2,74.4,1.1,2.9,108.1,0.00,17.8,21.7,"02:27:20",1
"20/06/22","02:40",0.0,22.7,73.4,1001.9,70.4,1.2,2.2,118.6,0.00,17.7,21.8,"02:36:00",1
"20/06/22","02:50",0.0,22.6,73.3,1001.9,80.9,1.1,2.2,85.2,0.00,17.6,21.7,"02:42:56",1
"20/06/22","03:00",0.0,22.7,73.2,1002.4,88.1,1.2,3.3,90.1,0.00,17.7,21.7,"02:51:52",1
"20/06/22","03:10",0.0,22.6,73.2,1001.9,66.3,1.1,2.5,313.5,0.00,17.6,21.7,"03:08:16",1
"20/06/22","03:20",0.0,22.5,73.0,1001.9,83.4,1.1,2.5,94.1,0.00,17.5,21.6,"03:12:08",1
"20/06/22","03:30",0.0,22.5,73.0,1002.2,93.9,1.2,2.9,102.3,0.00,17.5,21.5,"03:27:04",1
"20/06/22","03:40",0.0,22.6,72.5,1002.6,101.3,2.0,4.8,110.3,0.00,17.4,21.8,"03:32:08",1
"20/06/22","03:50",0.0,22.6,72.5,1001.9,74.3,1.0,2.1,122.7,0.00,17.4,21.7,"03:40:16",1
"20/06/22","04:00",0.0,22.5,72.6,1002.2,86.0,0.7,2.4,115.4,0.00,17.4,21.4,"03:59:04",1
"20/06/22","04:10",0.0,22.4,73.1,1001.9,70.9,1.1,3.9,130.7,0.00,17.4,21.6,"04:05:44",1
"20/06/22","04:20",0.0,22.5,72.9,1002.2,74.6,1.3,3.4,50.5,0.00,17.4,21.5,"04:13:12",1
"20/06/22","04:30",0.0,22.5,72.9,1001.9,80.4,1.2,3.1,85.2,0.00,17.4,21.5,"04:26:08",1
"20/06/22","04:40",0.0,22.4,73.0,1002.2,87.7,1.1,2.6,98.2,0.00,17.4,21.5,"04:36:00",1
"20/06/22","04:50",0.0,22.4,72.9,1002.4,79.3,0.7,1.4,12.8,0.00,17.3,21.5,"04:42:32",1
"20/06/22","05:00",0.0,22.3,73.2,1002.6,60.5,0.7,1.9,133.8,0.00,17.3,21.4,"04:53:04",1
"20/06/22","05:10",0.0,22.1,73.7,1002.6,305.2,0.5,2.4,111.2,0.00,17.2,21.4,"05:09:52",1
"20/06/22","05:20",0.0,21.9,74.3,1002.4,59.1,0.6,1.7,70.4,0.00,17.2,21.4,"05:19:36",1
"20/06/22","05:30",0.0,22.2,73.8,1002.9,59.0,0.7,2.5,91.5,0.00,17.3,21.6,"05:22:16",1
"20/06/22","05:40",0.0,22.2,73.4,1002.4,306.3,0.5,1.4,329.6,0.00,17.3,21.4,"05:30:56",1
"20/06/22","05:50",0.0,22.0,74.0,1002.2,137.4,0.2,0.9,189.8,0.00,17.2,21.5,"05:48:48",1
"20/06/22","06:00",0.0,22.1,74.6,1001.9,326.9,1.1,2.1,333.6,0.01,17.4,21.3,"05:56:40",1
"20/06/22","06:10",0.0,22.0,75.6,1002.4,328.9,1.5,2.0,348.2,0.01,17.5,21.5,"06:02:00",1
"20/06/22","06:20",0.0,22.1,76.2,1002.2,312.1,1.1,1.9,334.0,0.04,17.8,21.6,"06:10:40",1
"20/06/22","06:30",0.0,22.4,76.7,1001.9,307.7,1.1,1.6,314.2,0.06,18.1,21.5,"06:23:12",1
"20/06/22","06:40",0.0,22.6,76.9,1001.9,313.5,1.0,1.6,314.5,0.06,18.4,21.7,"06:34:24",1
"20/06/22","06:50",0.0,22.9,76.9,1001.7,318.4,1.1,1.7,339.2,0.07,18.7,21.8,"06:44:00",1
"20/06/22","07:00",0.0,23.0,76.7,1002.2,265.1,0.7,1.1,308.6,0.08,18.7,21.7,"06:56:24",1
"20/06/22","07:10",0.0,23.2,75.9,1001.9,314.7,1.1,2.1,334.2,0.10,18.8,21.7,"07:04:08",1
"20/06/22","07:20",0.0,23.5,74.6,1001.9,332.7,1.2,2.2,344.0,0.12,18.8,21.9,"07:13:28",1
"20/06/22","07:30",0.0,23.9,73.1,1001.9,349.9,0.7,1.6,345.2,0.12,18.8,22.1,"07:20:24",1
"20/06/22","07:40",0.0,24.2,71.7,1002.2,359.9,0.7,1.4,13.8,0.12,18.8,22.0,"07:34:08",1
"20/06/22","07:50",0.0,24.6,70.7,1002.2,329.6,0.6,1.6,340.9,0.16,19.0,22.3,"07:42:00",1
"20/06/22","08:00",0.0,25.1,67.1,1002.2,70.2,0.3,1.1,202.2,0.21,18.6,22.4,"07:57:52",1
"20/06/22","08:10",0.0,25.8,64.0,1002.2,176.7,0.2,0.9,161.1,0.21,18.5,22.6,"08:02:40",1
"20/06/22","08:20",0.0,25.9,61.9,1002.2,196.5,0.7,1.9,345.6,0.20,18.1,22.7,"08:17:12",1
"20/06/22","08:30",0.0,26.1,61.5,1001.9,122.9,0.5,1.6,347.8,0.20,18.2,23.0,"08:20:08",1
"20/06/22","08:40",0.0,26.6,62.3,1001.2,152.5,0.3,1.1,173.5,0.27,18.8,23.1,"08:36:32",1
"20/06/22","08:50",0.0,26.9,59.2,1001.2,69.4,0.7,1.6,126.1,0.28,18.3,23.4,"08:40:02",1
"20/06/22","09:00",0.0,26.7,58.3,1001.7,228.9,0.8,2.7,222.8,0.30,17.9,23.2,"08:59:52",1
"20/06/22","09:10",0.0,26.4,58.5,1001.7,210.0,1.5,3.2,210.9,0.27,17.7,23.7,"09:06:24",1
"20/06/22","09:20",0.0,27.3,58.4,1001.7,211.8,1.3,2.9,226.5,0.47,18.5,23.8,"09:18:40",1
"20/06/22","09:30",0.0,28.0,54.6,1001.7,353.8,1.1,3.9,229.3,0.53,18.0,23.9,"09:28:40",1
"20/06/22","09:40",0.0,28.5,53.4,1002.2,167.9,1.2,3.6,228.6,0.50,18.2,24.4,"09:31:28",1
"20/06/22","09:50",0.0,28.1,53.1,1002.4,193.9,1.0,2.5,225.0,0.32,17.7,24.7,"09:47:04",1
"20/06/22","10:00",0.0,27.8,54.0,1002.6,277.5,1.2,4.3,347.5,0.24,17.7,24.7,"09:58:40",1
"20/06/22","10:10",0.0,27.5,57.4,1001.9,348.2,1.7,4.0,334.8,0.28,18.4,24.9,"10:07:52",1
"20/06/22","10:20",0.0,26.6,57.8,1001.7,2.9,2.3,5.4,22.2,0.13,17.6,24.8,"10:16:40",1
"20/06/22","10:30",0.0,26.1,59.9,1000.8,354.3,2.3,5.1,345.9,0.09,17.7,24.9,"10:29:04",1
"20/06/22","10:40",0.0,26.6,60.4,1000.5,357.5,2.2,4.1,352.7,0.25,18.3,25.2,"10:30:56",1
"20/06/22","10:50",0.0,27.9,56.1,1001.0,4.9,2.0,4.3,351.2,0.55,18.4,25.1,"10:40:48",1
"20/06/22","11:00",0.0,27.5,56.4,1001.2,348.8,2.3,5.6,338.2,0.25,18.1,25.2,"10:54:40",1
"20/06/22","11:10",0.0,27.5,56.9,1000.8,356.4,2.7,7.0,337.9,0.35,18.2,25.2,"11:04:56",1
"20/06/22","11:20",0.0,27.7,56.7,1000.8,350.7,2.1,4.3,346.2,0.25,18.4,25.3,"11:16:08",1
"20/06/22","11:30",0.0,27.6,56.3,1000.8,343.0,2.3,4.4,327.2,0.23,18.2,25.3,"11:25:04",1
"20/06/22","11:40",0.0,27.7,55.8,1000.8,359.7,1.8,3.9,348.7,0.23,18.1,25.5,"11:31:20",1
"20/06/22","11:50",0.0,27.7,56.7,1000.5,3.5,2.2,7.4,342.8,0.20,18.4,25.4,"11:48:48",1
"20/06/22","12:00",0.0,27.7,56.7,1000.5,356.8,1.7,4.1,338.9,0.20,18.4,25.3,"11:57:44",1
"20/06/22","12:10",0.0,27.6,56.8,1000.8,351.8,2.6,4.5,2.1,0.20,18.3,25.5,"12:09:20",1
"20/06/22","12:20",0.0,27.8,56.3,1000.8,345.2,2.5,5.2,352.4,0.27,18.3,25.3,"12:11:04",1
"20/06/22","12:30",0.0,28.1,55.5,1000.8,349.0,2.3,5.4,345.1,0.32,18.4,25.6,"12:20:08",1
"20/06/22","12:40",0.0,27.8,56.5,1000.8,342.6,2.7,5.6,332.9,0.24,18.4,25.5,"12:35:20",1
"20/06/22","12:50",0.0,27.8,56.3,1000.8,0.8,1.6,4.0,2.0,0.18,18.3,25.3,"12:47:04",1
"20/06/22","13:00",0.0,27.4,55.7,1000.8,12.6,2.1,4.9,355.3,0.16,17.8,25.6,"12:50:40",1
"20/06/22","13:10",0.0,27.6,56.0,1000.8,8.2,1.5,4.0,3.0,0.19,18.1,25.5,"13:09:52",1
"20/06/22","13:20",0.0,27.4,55.4,1000.8,46.8,1.7,3.7,341.6,0.22,17.7,25.5,"13:10:48",1
"20/06/22","13:30",0.0,27.6,56.9,1000.5,3.3,1.3,4.3,49.8,0.23,18.3,25.3,"13:23:52",1
"20/06/22","13:40",0.0,28.0,55.2,1001.0,6.0,1.5,3.6,328.7,0.33,18.2,25.7,"13:36:08",1
"20/06/22","13:50",0.0,28.1,54.9,1001.0,317.5,1.3,3.2,324.3,0.27,18.2,25.8,"13:45:12",1
"20/06/22","14:00",0.0,27.9,55.0,1000.5,329.4,1.5,4.1,340.2,0.26,18.1,25.9,"13:50:48",1
"20/06/22","14:10",0.0,28.0,54.2,1000.5,339.2,1.2,2.8,338.9,0.26,17.9,25.7,"14:01:20",1
"20/06/22","14:20",0.0,28.1,55.2,1000.3,350.3,1.8,4.4,333.2,0.31,18.3,25.8,"14:17:28",1
"20/06/22","14:30",0.0,28.4,55.1,1000.3,355.3,2.0,5.1,307.6,0.37,18.6,25.8,"14:25:12",1
"20/06/22","14:40",0.0,28.6,52.3,1000.0,6.9,2.0,4.7,344.9,0.38,17.9,25.8,"14:30:24",1
"20/06/22","14:50",0.0,28.1,51.9,1000.3,14.2,1.6,2.9,11.7,0.20,17.3,25.9,"14:44:00",1
"20/06/22","15:00",0.0,27.8,52.8,1000.0,9.5,1.8,6.2,350.1,0.16,17.3,26.1,"14:52:32",1
"20/06/22","15:10",0.0,27.8,53.7,999.3,358.1,1.2,2.8,5.6,0.16,17.6,25.9,"15:00:32",1
"20/06/22","15:20",0.0,27.6,53.8,999.3,339.0,1.8,4.2,333.2,0.15,17.4,26.2,"15:15:20",1
"20/06/22","15:30",0.0,27.3,54.4,999.6,339.7,2.5,5.1,324.2,0.18,17.3,26.0,"15:24:16",1
"20/06/22","15:40",0.0,28.0,52.4,999.8,5.7,1.6,4.9,345.4,0.28,17.4,25.9,"15:34:56",1
"20/06/22","15:50",0.0,27.7,52.7,999.8,4.1,1.8,3.5,347.0,0.20,17.2,26.0,"15:48:16",1
"20/06/22","16:00",0.0,27.4,54.6,998.9,3.0,2.2,4.4,9.3,0.18,17.5,26.0,"15:54:00",1
"20/06/22","16:10",0.0,27.6,55.3,999.3,339.2,2.1,5.2,15.4,0.20,17.9,26.1,"16:05:12",1
"20/06/22","16:20",0.0,28.0,54.1,999.1,321.7,1.8,5.0,342.4,0.28,17.9,26.0,"16:10:16",1
"20/06/22","16:30",0.0,28.2,52.0,999.1,338.9,3.0,8.1,342.7,0.34,17.5,25.8,"16:29:20",1
"20/06/22","16:40",0.0,27.4,54.6,998.9,330.1,3.4,6.4,339.7,0.22,17.5,26.1,"16:36:40",1
"20/06/22","16:50",0.0,27.3,56.9,998.6,346.5,3.0,7.9,338.7,0.14,18.1,25.8,"16:48:16",1
"20/06/22","17:00",0.0,27.0,56.1,998.6,342.1,4.2,7.5,346.0,0.12,17.5,25.8,"16:56:56",1
"20/06/22","17:10",0.0,26.7,56.5,998.6,340.9,4.4,8.3,319.0,0.10,17.4,25.8,"17:02:24",1
"20/06/22","17:20",0.0,26.0,58.2,999.6,341.5,4.0,8.3,330.5,0.08,17.2,25.7,"17:10:32",1
"20/06/22","17:30",0.0,25.5,59.4,999.8,347.3,3.7,7.2,346.6,0.07,17.1,25.6,"17:22:08",1
"20/06/22","17:40",0.0,25.5,59.7,999.8,342.0,3.9,8.9,325.9,0.06,17.1,25.7,"17:30:02",1
"20/06/22","17:50",0.0,25.6,60.1,1000.0,336.4,3.5,7.9,324.5,0.05,17.3,25.4,"17:40:24",1
"20/06/22","18:00",0.0,25.3,60.1,1000.3,326.5,2.3,5.1,351.3,0.03,17.0,25.5,"17:59:36",1
"20/06/22","18:10",0.0,25.0,60.6,1000.8,321.8,2.8,6.6,343.6,0.03,16.9,25.2,"18:05:44",1
"20/06/22","18:20",0.0,25.1,60.2,1001.2,311.1,3.0,6.6,336.3,0.04,16.9,25.2,"18:11:52",1
"20/06/22","18:30",0.0,24.8,60.3,1001.0,322.7,2.7,5.6,216.6,0.03,16.6,25.2,"18:23:12",1
"20/06/22","18:40",0.0,24.5,60.6,1001.9,309.0,2.7,5.2,353.4,0.00,16.4,24.9,"18:31:20",1
"20/06/22","18:50",0.0,24.3,61.5,1001.7,299.7,1.8,4.3,346.6,0.00,16.5,25.0,"18:43:12",1
"20/06/22","19:00",0.0,24.2,62.1,1001.9,324.9,1.8,4.1,340.2,0.00,16.5,24.6,"18:53:12",1
"20/06/22","19:10",0.0,24.0,62.1,1002.2,286.6,2.0,4.4,328.3,0.00,16.3,24.7,"19:02:16",1
"20/06/22","19:20",0.0,23.8,62.8,1001.9,331.5,2.3,4.4,321.5,0.00,16.3,24.4,"19:14:48",1
"20/06/22","19:30",0.0,23.6,63.5,1002.4,340.3,2.2,4.4,336.3,0.00,16.3,24.4,"19:22:08",1
"20/06/22","19:40",0.0,23.5,64.2,1001.9,338.4,2.2,4.0,331.7,0.00,16.4,24.1,"19:36:24",1
"20/06/22","19:50",0.0,23.2,65.1,1002.2,341.7,1.8,3.2,1.8,0.00,16.3,24.1,"19:46:40",1
"20/06/22","20:00",0.0,23.1,65.7,1002.2,338.3,1.8,4.1,333.0,0.00,16.4,24.0,"19:52:00",1
"20/06/22","20:10",0.0,23.0,66.3,1002.4,343.7,1.1,2.5,351.9,0.00,16.4,24.1,"20:00:56",1
"20/06/22","20:20",0.0,22.9,67.0,1002.9,328.3,1.6,3.1,329.9,0.00,16.5,23.7,"20:14:40",1
"20/06/22","20:30",0.0,22.8,67.1,1002.9,320.6,1.8,3.5,316.1,0.00,16.4,23.7,"20:25:28",1
"20/06/22","20:40",0.0,22.8,67.1,1002.9,318.7,2.5,4.5,308.4,0.00,16.4,23.8,"20:39:52",1
"20/06/22","20:50",0.0,22.8,67.3,1003.4,339.9,2.2,5.1,330.8,0.00,16.5,23.7,"20:40:24",1
"20/06/22","21:00",0.0,22.6,67.9,1003.1,334.5,1.8,3.1,341.0,0.00,16.4,23.4,"20:57:12",1
"20/06/22","21:10",0.0,22.4,68.6,1003.6,328.7,1.8,3.5,320.1,0.00,16.4,23.4,"21:06:08",1
"20/06/22","21:20",0.0,22.5,68.6,1003.8,316.1,2.3,3.9,322.0,0.00,16.5,23.2,"21:19:52",1
"20/06/22","21:30",0.0,22.5,68.7,1003.6,309.0,1.7,5.1,336.7,0.00,16.5,23.2,"21:20:08",1
"20/06/22","21:40",0.0,22.5,68.7,1003.4,306.4,1.5,4.1,343.2,0.00,16.5,23.4,"21:32:16",1
"20/06/22","21:50",0.0,22.5,68.7,1003.4,330.0,2.1,3.4,326.6,0.00,16.5,23.1,"21:48:16",1
"20/06/22","22:00",0.0,22.5,68.9,1003.4,321.3,1.2,1.9,330.6,0.00,16.5,23.1,"21:52:48",1
"20/06/22","22:10",0.0,22.4,69.3,1003.8,319.1,1.6,2.8,323.4,0.00,16.5,23.0,"22:03:04",1
"20/06/22","22:20",0.0,22.4,69.7,1003.4,325.5,1.5,3.2,331.6,0.00,16.6,23.2,"22:17:44",1
"20/06/22","22:30",0.0,22.4,69.8,1003.6,330.4,2.1,3.5,304.6,0.00,16.7,22.8,"22:26:40",1
"20/06/22","22:40",0.0,22.3,70.0,1003.8,333.4,1.6,3.2,338.6,0.00,16.6,22.9,"22:30:16",1
"20/06/22","22:50",0.0,22.3,70.4,1003.6,329.8,1.6,3.7,349.9,0.00,16.7,22.8,"22:42:32",1
"20/06/22","23:00",0.0,22.0,70.8,1003.4,315.2,1.2,2.5,326.9,0.00,16.5,22.9,"22:52:24",1
"20/06/22","23:10",0.0,21.7,71.9,1003.6,304.1,1.1,2.8,336.8,0.00,16.5,22.7,"23:09:52",1
"20/06/22","23:20",0.0,21.5,73.0,1003.4,314.7,2.0,4.2,342.2,0.00,16.5,22.7,"23:14:24",1
"20/06/22","23:30",0.0,21.7,73.0,1003.4,312.8,2.1,3.6,323.8,0.00,16.7,22.7,"23:29:12",1
"20/06/22","23:40",0.0,21.7,72.9,1003.1,327.0,2.0,4.2,332.9,0.00,16.7,22.7,"23:36:08",1
"20/06/22","23:50",0.0,21.6,72.9,1003.4,315.8,1.8,3.7,339.9,0.00,16.6,22.7,"23:42:08",1
"20/06/22","24:00",0.0,21.5,73.1,1002.9,326.1,1.7,3.3,322.2,0.00,16.5,22.5,"23:53:44",1
